Stündliche Wetter Abu Dhabi

Heute, 17 Juni, Donnerstag

Zeit Temperatur Niederschläge Wind Luftdruck Luftfeuchtigkeit
00:00 +33°C° 0 mm 5 m/S 749 mmHg 65%
01:00 +33°C° 0 mm 5 m/S 748 mmHg 65%
02:00 +33°C° 0 mm 5 m/S 748 mmHg 64%
03:00 +33°C° 0 mm 6 m/S 748 mmHg 64%
04:00 +33°C° 0 mm 6 m/S 748 mmHg 63%
05:00 +33°C° 0 mm 6 m/S 748 mmHg 61%
06:00 +34°C° 0 mm 6 m/S 748 mmHg 59%
07:00 +34°C° 0 mm 7 m/S 749 mmHg 57%
08:00 +35°C° 0 mm 6 m/S 749 mmHg 53%
09:00 +36°C° 0 mm 6 m/S 749 mmHg 50%
10:00 +38°C° 0 mm 6 m/S 749 mmHg 46%
11:00 +39°C° 0 mm 6 m/S 749 mmHg 47%
12:00 +39°C° 0 mm 7 m/S 749 mmHg 47%
13:00 +39°C° 0 mm 7 m/S 748 mmHg 47%
14:00 +39°C° 0 mm 7 m/S 748 mmHg 48%
15:00 +38°C° 0 mm 7 m/S 748 mmHg 50%
16:00 +38°C° 0 mm 8 m/S 748 mmHg 51%
17:00 +37°C° 0 mm 8 m/S 748 mmHg 54%
18:00 +35°C° 0 mm 8 m/S 748 mmHg 58%
19:00 +34°C° 0 mm 8 m/S 748 mmHg 61%
20:00 +34°C° 0 mm 7 m/S 748 mmHg 62%
21:00 +34°C° 0 mm 7 m/S 748 mmHg 63%
22:00 +33°C° 0 mm 6 m/S 749 mmHg 63%
23:00 +33°C° 0 mm 6 m/S 748 mmHg 64%

Morgen, 18 Juni, Freitag

Zeit Temperatur Niederschläge Wind Luftdruck Luftfeuchtigkeit
00:00 +33°C° 0 mm 5 m/S 748 mmHg 64%
01:00 +33°C° 0 mm 4 m/S 748 mmHg 65%
02:00 +33°C° 0 mm 4 m/S 748 mmHg 66%
03:00 +31°C° 0 mm 3 m/S 748 mmHg 67%
04:00 +31°C° 0 mm 3 m/S 748 mmHg 68%
05:00 +33°C° 0 mm 4 m/S 748 mmHg 66%
06:00 +33°C° 0 mm 4 m/S 748 mmHg 64%
07:00 +34°C° 0 mm 5 m/S 748 mmHg 63%
08:00 +35°C° 0 mm 5 m/S 748 mmHg 59%
09:00 +36°C° 0 mm 4 m/S 748 mmHg 56%
10:00 +37°C° 0 mm 4 m/S 749 mmHg 53%
11:00 +37°C° 0 mm 4 m/S 748 mmHg 52%
12:00 +38°C° 0 mm 4 m/S 748 mmHg 51%
13:00 +38°C° 0 mm 4 m/S 748 mmHg 50%
14:00 +38°C° 0 mm 4 m/S 748 mmHg 52%
15:00 +39°C° 0 mm 5 m/S 747 mmHg 54%
16:00 +38°C° 0 mm 6 m/S 747 mmHg 55%
17:00 +36°C° 0 mm 5 m/S 747 mmHg 60%
18:00 +35°C° 0 mm 4 m/S 748 mmHg 65%
19:00 +35°C° 0 mm 4 m/S 748 mmHg 69%
20:00 +34°C° 0 mm 4 m/S 748 mmHg 71%
21:00 +34°C° 0 mm 5 m/S 748 mmHg 73%
22:00 +33°C° 0 mm 5 m/S 749 mmHg 75%
23:00 +33°C° 0 mm 5 m/S 748 mmHg 75%

übermorgen, 19 Juni, Samstag

Zeit Temperatur Niederschläge Wind Luftdruck Luftfeuchtigkeit
00:00 +33°C° 0 mm 5 m/S 748 mmHg 76%
01:00 +33°C° 0 mm 5 m/S 748 mmHg 76%
02:00 +33°C° 0 mm 4 m/S 748 mmHg 76%
03:00 +32°C° 0 mm 4 m/S 748 mmHg 77%
04:00 +32°C° 0 mm 4 m/S 748 mmHg 78%
05:00 +31°C° 0 mm 3 m/S 749 mmHg 75%
06:00 +32°C° 0 mm 2 m/S 749 mmHg 71%
07:00 +32°C° 0 mm 2 m/S 750 mmHg 67%
08:00 +35°C° 0 mm 2 m/S 750 mmHg 58%
09:00 +37°C° 0 mm 2 m/S 750 mmHg 49%
10:00 +39°C° 0 mm 2 m/S 750 mmHg 39%
11:00 +39°C° 0 mm 3 m/S 750 mmHg 38%
12:00 +41°C° 0 mm 4 m/S 749 mmHg 36%
13:00 +42°C° 0 mm 5 m/S 749 mmHg 35%
14:00 +42°C° 0 mm 5 m/S 748 mmHg 38%
15:00 +41°C° 0 mm 6 m/S 748 mmHg 41%
16:00 +41°C° 0 mm 7 m/S 748 mmHg 44%
17:00 +40°C° 0 mm 6 m/S 748 mmHg 49%
18:00 +39°C° 0 mm 5 m/S 748 mmHg 54%
19:00 +37°C° 0 mm 4 m/S 748 mmHg 59%
20:00 +36°C° 0 mm 4 m/S 748 mmHg 61%
21:00 +36°C° 0 mm 5 m/S 748 mmHg 63%
22:00 +35°C° 0 mm 5 m/S 749 mmHg 65%
23:00 +35°C° 0 mm 5 m/S 749 mmHg 68%

20 Juni, Sonntag

Zeit Temperatur Niederschläge Wind Luftdruck Luftfeuchtigkeit
00:00 +34°C° 0 mm 5 m/S 749 mmHg 71%
01:00 +34°C° 0 mm 5 m/S 749 mmHg 74%
02:00 +34°C° 0 mm 4 m/S 749 mmHg 72%
03:00 +33°C° 0 mm 3 m/S 749 mmHg 70%
04:00 +32°C° 0 mm 2 m/S 748 mmHg 68%
05:00 +34°C° 0 mm 2 m/S 749 mmHg 62%
06:00 +34°C° 0 mm 2 m/S 749 mmHg 55%
07:00 +34°C° 0 mm 1 m/S 750 mmHg 48%
08:00 +36°C° 0 mm 1 m/S 750 mmHg 40%
09:00 +39°C° 0 mm 1 m/S 750 mmHg 33%
10:00 +41°C° 0 mm 1 m/S 750 mmHg 25%
11:00 +41°C° 0 mm 2 m/S 750 mmHg 26%
12:00 +42°C° 0 mm 3 m/S 750 mmHg 28%
13:00 +43°C° 0 mm 4 m/S 749 mmHg 29%
14:00 +42°C° 0 mm 4 m/S 749 mmHg 30%
15:00 +42°C° 0 mm 4 m/S 748 mmHg 30%
16:00 +42°C° 0 mm 5 m/S 748 mmHg 31%
17:00 +40°C° 0 mm 5 m/S 748 mmHg 38%
18:00 +39°C° 0 mm 5 m/S 748 mmHg 44%
19:00 +37°C° 0 mm 4 m/S 748 mmHg 51%
20:00 +36°C° 0 mm 4 m/S 748 mmHg 47%
21:00 +36°C° 0 mm 3 m/S 748 mmHg 44%
22:00 +36°C° 0 mm 2 m/S 749 mmHg 40%
23:00 +36°C° 0 mm 3 m/S 748 mmHg 44%

21 Juni, Montag

Zeit Temperatur Niederschläge Wind Luftdruck Luftfeuchtigkeit
00:00 +36°C° 0 mm 4 m/S 748 mmHg 47%
01:00 +35°C° 0 mm 6 m/S 748 mmHg 50%
02:00 +35°C° 0 mm 6 m/S 748 mmHg 54%
03:00 +34°C° 0 mm 5 m/S 748 mmHg 59%
04:00 +33°C° 0 mm 5 m/S 748 mmHg 63%
05:00 +34°C° 0 mm 5 m/S 749 mmHg 54%
06:00 +34°C° 0 mm 6 m/S 749 mmHg 45%
07:00 +35°C° 0 mm 6 m/S 750 mmHg 36%
08:00 +37°C° 0 mm 5 m/S 750 mmHg 34%
09:00 +40°C° 0 mm 5 m/S 750 mmHg 33%
10:00 +43°C° 0 mm 5 m/S 750 mmHg 31%
11:00 +44°C° 0 mm 4 m/S 750 mmHg 26%
12:00 +46°C° 0 mm 3 m/S 749 mmHg 21%
13:00 +47°C° 0 mm 2 m/S 749 mmHg 17%
14:00 +47°C° 0 mm 4 m/S 748 mmHg 20%
15:00 +47°C° 0 mm 5 m/S 748 mmHg 23%
16:00 +46°C° 0 mm 7 m/S 748 mmHg 26%
17:00 +44°C° 0 mm 6 m/S 748 mmHg 33%
18:00 +41°C° 0 mm 6 m/S 748 mmHg 40%
19:00 +39°C° 0 mm 6 m/S 748 mmHg 47%
20:00 +39°C° 0 mm 5 m/S 748 mmHg 42%
21:00 +38°C° 0 mm 4 m/S 748 mmHg 38%
22:00 +38°C° 0 mm 4 m/S 749 mmHg 33%
23:00 +37°C° 0 mm 5 m/S 749 mmHg 41%

22 Juni, Dienstag

Zeit Temperatur Niederschläge Wind Luftdruck Luftfeuchtigkeit
00:00 +36°C° 0 mm 5 m/S 749 mmHg 50%
01:00 +35°C° 0 mm 6 m/S 749 mmHg 59%
02:00 +34°C° 0 mm 5 m/S 749 mmHg 60%
03:00 +34°C° 0 mm 4 m/S 749 mmHg 61%
04:00 +34°C° 0 mm 3 m/S 749 mmHg 62%
05:00 +34°C° 0 mm 5 m/S 749 mmHg 52%
06:00 +34°C° 0 mm 6 m/S 750 mmHg 43%
07:00 +35°C° 0 mm 7 m/S 750 mmHg 33%
08:00 +38°C° 0 mm 6 m/S 750 mmHg 30%
09:00 +41°C° 0 mm 6 m/S 750 mmHg 27%
10:00 +45°C° 0 mm 6 m/S 750 mmHg 23%
11:00 +46°C° 0 mm 5 m/S 750 mmHg 21%
12:00 +47°C° 0 mm 5 m/S 749 mmHg 19%
13:00 +49°C° 0 mm 4 m/S 749 mmHg 17%
14:00 +47°C° 0 mm 5 m/S 749 mmHg 21%
15:00 +46°C° 0 mm 6 m/S 749 mmHg 25%
16:00 +44°C° 0 mm 7 m/S 748 mmHg 30%
17:00 +43°C° 0 mm 7 m/S 748 mmHg 36%
18:00 +40°C° 0 mm 7 m/S 749 mmHg 42%
19:00 +38°C° 0 mm 7 m/S 749 mmHg 48%
20:00 +38°C° 0 mm 6 m/S 749 mmHg 46%
21:00 +37°C° 0 mm 5 m/S 749 mmHg 45%
22:00 +37°C° 0 mm 4 m/S 750 mmHg 43%
23:00 +36°C° 0 mm 4 m/S 749 mmHg 40%
Mehr zeigen

Wir brauchen deine Erlaubnis

Meteoprog und unser Service Anbieter werden persönliche Daten aufbewahren, so wie Cookies, Geräte Bezeichnung oder ähnliche Technologien von deinem Gerät und Prozess, so wie Persönliche Daten Inhalte und Werbungen, genauso wie social Media und den Verkehr zu analysieren.

  • Aufbewahrung und/oder Zugang zu deiner Geräte Informationen.

    Cookies, Geräte Bezeichnung oder andere Informationen, können aufbewahrt oder Zugang zu deinem Gerät erhalten, für den Grund, der oben angegeben wird.

  • Personalisierte Werbung und Inhalte, Messungen, Einblick in das Publikum und Produkt Entwicklung.

    Werbungen und Inhalte können personalisiert werden, basierend auf ein Profil. Mehr Daten können besser personalisierte Werbungen und Inhalte hinzufügen. Werbung und Inhalte können gezeigt und gemessen werden. Einblicke über das Publikum, welche die Werbung gesehen haben und den Inhalt, können abgeleitet werden. So wie Daten können genutzt werden, um es zu verbessern oder die Benutzer Erfahrung zu verbessern das System und die Software.

Wenn du “Ich stimme zu” klickst, erlaubst du uns, die Cookies zu benutzen die Geräte Bezeichnung, den Web oder ähnliche Technologien zu benutzen. Deine Settings, können in deinem Gerät bei deinem Browser geändert werden.

Für den bestimmten Zweck, berechtigten Interessen beruhen darauf, mehr als auf den Inhalt. Du kannst mehr darüber in unseren Privaten und Cookie Politik lesen.